Change the Weather History Date:

Tuesday, December 11, 2012

  Actual Average Record
Temperature  
Mean Temperature 24 °F -  
Max Temperature 35 °F 42 °F 68 °F (2004)
Min Temperature 12 °F 19 °F 1 °F (2000)
Degree Days  
Heating Degree Days 41    
Month to date heating degree days 309  
Moisture  
Dew Point 15 °F    
Average Humidity 71    
Maximum Humidity 100    
Minimum Humidity 41    
Precipitation  
Precipitation 0.02 in - - ()
Month to date precipitation 0.07  
Year to date precipitation 13.71  
Sea Level Pressure  
Sea Level Pressure 29.98 in    
Wind  
Wind Speed 6 mph (SSE)    
Max Wind Speed 15 mph    
Max Gust Speed 20 mph    
Visibility 8 miles    
Events Snow    
Averages and records for this station are not official NWS values.
T = Trace of Precipitation, MM = Missing Value Source: NWS Daily Summary

Daily Weather History Graph

Daily Weather History Graph

Search for Another Location

Airport or City:

Trip Planner

Search our weather history database for the weather conditions in past years. The results will help you decide how hot, cold, wet, or windy it might be!

Date:

Astronomy

Dec. 11, 2012 Rise Set
Actual Time 7:10 AM MST 4:35 PM MST
Civil Twilight 6:40 AM MST 5:05 PM MST
Nautical Twilight 6:06 AM MST 5:39 PM MST
Astronomical Twilight 5:33 AM MST 6:12 PM MST
Moon 5:08 AM MST (12/11) 3:16 PM MST (12/11)
Length of Visible Light 10h 25m
Length of Day
9h 25m
Waning Crescent, 4% of the Moon is Illuminated
Dec 11
Waning Crescent
Dec 13
New
Dec 19
First Quarter
Dec 28
Full
Jan 4
Last Quarter

Hourly Weather History & Observations

Time (MST) Temp. Windchill Dew Point Humidity Pressure Visibility Wind Dir Wind Speed Gust Speed Precip Events Conditions
12:04 AM 23.0 °F 18.4 °F 21.2 °F 93% 29.96 in 2.0 mi NNE 3.5 mph - 0.00 in Snow Light Snow
12:48 AM 23.0 °F 18.4 °F 21.2 °F 93% 29.96 in 1.2 mi North 3.5 mph - 0.01 in Snow Light Snow
12:53 AM 23.0 °F 18.4 °F 21.9 °F 96% 30.06 in 0.8 mi North 3.5 mph - 0.01 in Snow Light Snow
1:01 AM 23.0 °F 17.0 °F 21.2 °F 93% 29.96 in 0.8 mi NNW 4.6 mph - 0.00 in Snow Light Snow
1:23 AM 21.2 °F 12.6 °F 19.4 °F 93% 29.96 in 0.8 mi NE 6.9 mph - 0.01 in Snow Light Snow
1:30 AM 21.2 °F 14.9 °F 19.4 °F 93% 29.96 in 1.0 mi ENE 4.6 mph - 0.01 in Snow Light Snow
1:51 AM 19.4 °F 12.8 °F 19.4 °F 100% 29.95 in 2.0 mi East 4.6 mph - 0.01 in Snow Light Snow
1:53 AM 19.9 °F 14.9 °F 19.0 °F 96% 30.07 in 3.0 mi East 3.5 mph - 0.01 in Snow Light Snow
2:35 AM 14.0 °F 8.2 °F 12.2 °F 93% 29.95 in 10.0 mi South 3.5 mph - 0.00 in   Partly Cloudy
2:53 AM 18.0 °F 11.1 °F 17.1 °F 96% 30.07 in 10.0 mi South 4.6 mph - 0.00 in   Scattered Clouds
3:53 AM 17.1 °F 11.7 °F 14.0 °F 88% 30.08 in 10.0 mi South 3.5 mph - N/A   Overcast
5:53 AM 12.9 °F 3.8 °F 12.0 °F 96% 30.07 in 8.0 mi SSE 5.8 mph - N/A   Partly Cloudy
6:53 AM 16.0 °F 4.4 °F 12.0 °F 84% 30.08 in 10.0 mi SSW 9.2 mph - N/A   Scattered Clouds
7:53 AM 17.1 °F 5.0 °F 10.9 °F 77% 30.09 in 10.0 mi SSW 10.4 mph - N/A   Scattered Clouds
8:53 AM 21.9 °F 11.7 °F 10.9 °F 63% 30.06 in 10.0 mi SSW 9.2 mph - N/A   Scattered Clouds
9:53 AM 25.0 °F 18.1 °F 12.0 °F 58% 30.06 in 10.0 mi South 5.8 mph - N/A   Scattered Clouds
10:53 AM 30.0 °F 22.4 °F 12.0 °F 47% 30.01 in 10.0 mi South 8.1 mph - N/A   Scattered Clouds
11:53 AM 32.0 °F 23.6 °F 12.9 °F 45% 29.97 in 10.0 mi South 10.4 mph - N/A   Scattered Clouds
12:53 PM 34.0 °F 25.0 °F 12.9 °F 42% 29.91 in 10.0 mi South 12.7 mph - N/A   Scattered Clouds
1:53 PM 35.1 °F 27.9 °F 15.1 °F 44% 29.90 in 10.0 mi South 9.2 mph - N/A   Scattered Clouds
2:53 PM 34.0 °F 26.0 °F 18.0 °F 52% 29.90 in 10.0 mi SSE 10.4 mph - N/A   Scattered Clouds
3:53 PM 30.9 °F 21.7 °F 17.1 °F 57% 29.91 in 10.0 mi SSE 11.5 mph - N/A   Scattered Clouds
4:53 PM 28.0 °F 19.3 °F 15.1 °F 58% 29.93 in 10.0 mi SSE 9.2 mph - N/A   Scattered Clouds
5:53 PM 28.9 °F 19.2 °F 15.1 °F 56% 29.94 in 10.0 mi South 11.5 mph - N/A   Scattered Clouds
6:53 PM 26.1 °F 16.8 °F 14.0 °F 60% 29.94 in 10.0 mi SE 9.2 mph - N/A   Scattered Clouds
7:53 PM 21.0 °F 12.4 °F 12.9 °F 71% 29.98 in 10.0 mi SSE 6.9 mph - N/A   Scattered Clouds
8:53 PM 21.9 °F 13.4 °F 12.9 °F 68% 29.97 in 10.0 mi SSE 6.9 mph - N/A   Scattered Clouds
9:53 PM 24.1 °F 13.7 °F 12.0 °F 60% 29.92 in 10.0 mi SE 10.4 mph - N/A   Mostly Cloudy
10:53 PM 27.0 °F 18.7 °F 12.0 °F 53% 29.87 in 10.0 mi SSE 8.1 mph - N/A   Mostly Cloudy
11:53 PM 34.0 °F 24.6 °F 12.9 °F 42% 29.83 in 10.0 mi SW 13.8 mph - N/A   Scattered Clouds